Location: Kuppenheim
(48.8299°N, 8.2568°E)
Time: 16:31:34
(UTC+00:00)

BlueWalker 3 - Visible Passes

Search period start: 27 November 2022 00:00
Search period end: 07 December 2022 00:00
Orbit: 500 x 519 km, 53.2° (Epoch: 27 November)

Date Brightness Start Highest point End Pass type
(mag) Time Alt. Az. Time Alt. Az. Time Alt. Az.
27 Nov 2.1 17:30:36 10° WSW 17:34:30 68° NNW 17:35:24 49° NE visible
27 Nov 5.2 19:09:50 10° WNW 19:10:13 12° WNW 19:10:13 12° WNW visible
28 Nov 2.1 17:12:17 10° WSW 17:16:10 66° NNW 17:17:47 33° NE visible
28 Nov 4.7 18:51:30 10° WNW 18:52:36 17° WNW 18:52:36 17° WNW visible
29 Nov 2.2 16:53:56 10° WSW 16:57:50 63° NNW 17:00:09 23° ENE visible
29 Nov 4.1 18:33:10 10° WNW 18:34:58 24° NW 18:34:58 24° NW visible
30 Nov 2.2 16:35:35 10° W 16:39:28 62° NNW 16:42:30 16° ENE visible
30 Nov 3.5 18:14:49 10° WNW 18:17:19 32° NW 18:17:19 32° NW visible
01 Dec 2.2 16:17:14 10° W 16:21:07 60° NNW 16:24:50 11° ENE visible
01 Dec 2.9 17:56:28 10° WNW 17:59:39 40° NNW 17:59:39 40° NNW visible
02 Dec 2.5 17:38:07 10° WNW 17:41:52 43° N 17:42:00 43° N visible
03 Dec 2.5 17:19:45 10° WNW 17:23:31 43° N 17:24:22 37° NE visible
03 Dec 4.9 18:58:34 10° WNW 18:59:12 14° WNW 18:59:12 14° WNW visible
04 Dec 2.5 17:01:22 10° WNW 17:05:09 44° N 17:06:46 28° ENE visible
04 Dec 4.3 18:40:11 10° WNW 18:41:36 21° WNW 18:41:36 21° WNW visible
05 Dec 2.5 16:42:59 10° WNW 16:46:46 44° N 16:49:12 19° ENE visible
05 Dec 3.5 18:21:47 10° WNW 18:24:02 33° WNW 18:24:02 33° WNW visible
06 Dec 2.5 16:24:36 10° WNW 16:28:24 45° N 16:31:43 13° E visible
06 Dec 2.5 18:03:23 10° WNW 18:06:33 56° WNW 18:06:33 56° WNW visible
